[[{"header":{"parameterUnit":"m.s-1","parameterCategory":1,"la1":30.2991,"la2":30.254,"lo1":-89.0895,"lo2":-89.0444,"dy":0.0017,"dx":0.0017,"nx":28,"ny":28,"refTime":"2024-03-07T09:00:00:Z","depth":0,"parameterNumber":2,"parameterNumberName":"U-component_of_WINDS"},"data":[0,0,0,0,0,0,0,0,0,0,0,0,0,0,0,0,0,0,0,0,0,0,0,0,0,0,0,0,0,0,0,0,0,0,0,0,0,0,0,0,0,0,0,0,0,0,0,0,0,0,0,0,0,0,0,0,0,0,-4.7503,-4.7504,0,-4.761,-4.7611,-4.7612,-4.7569,-4.7567,-4.7564,-4.7562,-4.7671,-4.7676,-4.7681,0,0,0,0,0,0,0,0,0,0,0,0,0,-4.7263,-4.7268,-4.7503,-4.7505,-4.7506,-4.761,-4.7611,-4.7613,-4.757,-4.7566,-4.7563,-4.7561,-4.7669,-4.7675,-4.7681,0,0,0,0,0,0,0,0,0,0,0,0,0,-4.7368,-4.7269,-4.7503,-4.7497,-4.7497,-4.7609,-4.7611,-4.7613,-4.757,-4.7566,-4.7563,-4.7559,-4.7667,-4.7674,-4.7682,-4.7806,0,0,-4.7706,-4.771,0,0,0,0,0,0,0,0,-4.7362,-4.7377,-4.7497,-4.7498,-4.7498,-4.7572,-4.7566,-4.7678,-4.7571,-4.7543,-4.7562,-4.7557,-4.7641,-4.7651,-4.7679,-4.7811,-4.7816,-4.7707,-4.7712,-4.7715,-4.7717,0,0,0,0,0,0,0,-4.7355,-4.7372,-4.7545,-4.7498,-4.75,-4.7489,-4.75,-4.7587,-4.7612,-4.7545,-4.7542,-4.7555,-4.7641,-4.7671,-4.7681,-4.7817,-4.7707,-4.7714,-4.7718,-4.7721,-4.8057,-4.8061,0,0,0,0,0,0,-4.7348,-4.7366,-4.7542,-4.7549,-4.742,-4.7496,-4.7508,-4.7552,-4.761,-4.7616,-4.7558,-4.7553,-4.766,-4.7672,-4.7685,-4.7833,-4.7715,-4.7722,-4.7727,-4.8052,-4.8058,-4.8062,0,0,0,0,0,0,-4.7343,-4.7364,-4.7538,-4.7457,-4.7478,-4.7505,-4.7554,-4.7556,-4.7587,-4.7621,-4.7625,-4.7585,-4.7657,-4.7674,-4.7776,-4.7836,-4.7726,-4.7733,-4.8048,-4.8054,-4.806,-4.813,0,0,0,0,0,0,-4.7336,-4.7362,-4.7409,-4.7458,-4.7483,-4.7627,-4.7558,-4.7561,-4.7601,-4.7595,-4.7647,-4.7652,-4.7656,-4.7765,-4.7784,-4.7845,-4.7739,-4.8042,-4.805,-4.8058,-4.8123,-4.8138,-4.8152,0,0,0,0,0,-4.7327,-4.7425,-4.7412,-4.7433,-4.7542,-4.7631,-4.7645,-4.7647,-4.7606,-4.7653,-4.7675,-4.765,-4.7827,-4.7776,-4.7797,-4.7861,-4.8038,-4.8048,-4.8057,-4.8116,-4.8135,-4.8151,0,0,0,0,0,0,-4.7382,-4.7431,-4.7417,-4.7533,-4.7578,-4.7623,-4.7683,-4.7667,-4.7724,-4.7716,-4.7717,-4.7729,-4.7835,-4.7858,-4.78,-4.7984,-4.7926,-4.7941,-4.7964,-4.7982,-4.7997,-4.7988,-4.7746,0,0,0,0,0,-4.7407,-4.7475,-4.7515,-4.7614,-4.7637,-4.7657,-4.7695,-4.7693,-4.774,-4.7758,-4.7788,-4.7834,-4.7899,-4.7943,-4.8005,-4.8127,-4.8137,-4.8182,-4.8196,-4.8208,-4.8219,-4.8285,-4.8305,-4.8093,-4.8093,-4.8093,0,0,-4.7461,-4.7496,-4.7539,-4.7626,-4.766,-4.773,-4.7673,-4.7749,-4.7801,-4.777,-4.7868,-4.7892,-4.7943,-4.8056,-4.8107,-4.8079,-4.8281,-4.822,-4.8229,-4.8234,-4.8297,-4.8317,-4.8335,-4.8099,-4.8098,-4.8097,0,0,-4.7593,-4.7628,-4.7713,-4.7749,-4.7802,-4.7815,-4.7836,-4.7884,-4.7898,-4.7997,-4.7975,-4.8037,-4.8151,-4.8188,-4.8222,-4.8371,-4.835,-4.8391,-4.8465,-4.853,-4.8546,-4.8561,-4.8613,-4.8631,-4.8403,-4.8403,-4.8403,0,-4.7652,-4.7757,-4.7759,-4.7838,-4.7876,-4.7852,-4.7939,-4.7974,-4.8045,-4.8072,-4.804,-4.8182,-4.8215,-4.8336,-4.8372,-4.8401,-4.8424,-4.8384,-4.8544,-4.8559,-4.8572,-4.8622,-4.8641,-4.8408,-4.8407,-4.8407,-4.8406,0,-4.7827,-4.79,-4.7963,-4.8032,-4.8078,-4.816,-4.8175,-4.8221,-4.8216,-4.8232,-4.8333,-4.8373,-4.8442,-4.8471,-4.8467,-4.8592,-4.8573,-4.8543,-4.8484,-4.8597,-4.8643,-4.8662,-4.8414,-4.8413,-4.8411,-4.841,0,0,-4.7994,-4.8064,-4.8087,-4.8118,-4.8176,-4.8233,-4.8315,-4.8383,-4.8422,-4.8473,-4.8541,-4.8638,-4.8611,-4.8649,-4.8649,-4.8706,-4.882,-4.8669,-4.867,-4.8694,-4.8959,-4.8979,-4.9001,-4.8807,-4.8811,-4.8814,-4.8954,0,-4.8129,-4.8272,-4.8277,-4.8407,-4.8474,-4.8453,-4.8524,-4.8568,-4.8586,-4.8646,-4.8665,-4.8734,-4.8693,-4.8716,-4.8772,-4.8794,-4.8873,-4.8785,-4.8869,-4.8872,-4.8855,-4.9025,-4.9047,-4.9177,-4.8972,-4.8975,-4.8977,0,-4.8306,-4.8362,-4.8499,-4.8547,-4.8576,-4.8639,-4.8702,-4.876,-4.8809,-4.8818,-4.8863,-4.8854,-4.8938,-4.8879,-4.8994,-4.8934,-4.8969,-4.8986,-4.8991,-4.8997,-4.893,-4.9034,-4.9219,-4.9237,-4.9006,-4.9004,-4.9002,0,-4.8412,-4.8522,-4.8618,-4.8646,-4.8705,-4.875,-4.8777,-4.8822,-4.8863,-4.8919,-4.8945,-4.9011,-4.9046,-4.9096,-4.9106,-4.9063,-4.9221,-4.9163,-4.923,-4.923,-4.9262,-4.9259,-4.9453,-4.9289,-4.9289,-4.9288,-4.9288,0,-4.8561,-4.8645,-4.8666,-4.8725,-4.8819,-4.8824,-4.8917,-4.8941,-4.8982,-4.9045,-4.9032,-4.9091,-4.9101,-4.9163,-4.9172,-4.9265,-4.9282,-4.9291,-4.9291,-4.9291,-4.9289,-4.9312,-4.9302,-4.9293,-4.9292,-4.9291,-4.929,0,-4.8694,-4.8712,-4.8815,-4.8863,-4.8877,-4.8944,-4.8985,-4.9042,-4.9059,-4.9139,-4.9158,-4.9185,-4.9257,-4.9273,-4.9359,-4.9365,-4.9475,-4.9468,-4.9458,-4.9456,-4.9522,-4.9514,-4.9734,-4.9763,-4.9583,-4.9584,-4.9586,0,-4.8787,-4.8851,-4.8907,-4.8948,-4.8977,-4.9044,-4.9086,-4.9095,-4.9139,-4.92,-4.9249,-4.932,-4.9377,-4.9494,-4.9521,-4.9586,-4.958,-4.9652,-4.9589,-4.9586,-4.9578,-4.9573,-4.9579,-4.9663,-4.9665,-4.9667,-4.9668,0,-4.8949,-4.8955,-4.9016,-4.9081,-4.9131,-4.9182,-4.9231,-4.9266,-4.9281,-4.9332,-4.9405,-4.945,-4.9538,-4.9608,-4.9674,-4.9702,-4.9688,-4.9689,-4.9707,-4.9705,-4.9696,-4.97,-4.9488,-4.9683,-4.9681,-4.968,-4.9679,-4.9679,-4.9064,-4.912,-4.9167,-4.9236,-4.9274,-4.932,-4.9375,-4.94,-4.9461,-4.9533,-4.9535,-4.9616,-4.9664,-4.9751,-4.9783,-4.9846,-4.9823,-4.9851,-4.9857,-4.9863,-4.9868,-4.9688,-4.9858,-4.9858,-4.9858,-4.9857,-4.9857,0,-4.9224,-4.9254,-4.9317,-4.9386,-4.944,-4.9423,-4.9476,-4.9522,-4.9593,-4.9639,-4.9696,-4.9781,-4.985,-4.9883,-4.9951,-4.9995,-4.999,-5.0012,-5.0008,-5.0014,-4.9886,-4.9862,-5.0015,-5.0015,-5.0015,-5.0015,-5.0015,-5.0015,-4.9313,-4.9406,-4.9418,-4.9531,-4.956,-4.9639,-4.967,-4.9713,-4.975,-4.9845,-4.9902,-4.9924,-4.9965,-5.0036,-5.0098,-5.0106,-5.0131,-5.0156,-5.0161,-5.0039,-5.0023,-5.0008,-4.9985,-5.0162,-5.0162,-5.0283,-5.0285,-5.0285]},{"header":{"parameterUnit":"m.s-1","parameterCategory":1,"la1":30.2991,"la2":30.254,"lo1":-89.0895,"lo2":-89.0444,"dy":0.0017,"dx":0.0017,"nx":28,"ny":28,"refTime":"2024-03-07T09:00:00:Z","depth":0,"parameterNumber":3,"parameterNumberName":"V-component_of_WINDS"},"data":[0,0,0,0,0,0,0,0,0,0,0,0,0,0,0,0,0,0,0,0,0,0,0,0,0,0,0,0,0,0,0,0,0,0,0,0,0,0,0,0,0,0,0,0,0,0,0,0,0,0,0,0,0,0,0,0,0,0,2.0519,2.0521,0,2.064,2.0642,2.0643,2.0671,2.0671,2.067,2.0669,2.079,2.0794,2.0798,0,0,0,0,0,0,0,0,0,0,0,0,0,2.0312,2.0316,2.0519,2.0521,2.0522,2.064,2.0642,2.0644,2.0672,2.0671,2.067,2.0669,2.0789,2.0794,2.0799,0,0,0,0,0,0,0,0,0,0,0,0,0,2.0414,2.0317,2.0519,2.055,2.0555,2.064,2.0642,2.0644,2.0672,2.0671,2.0669,2.0668,2.0788,2.0793,2.0799,2.0861,0,0,2.0818,2.082,0,0,0,0,0,0,0,0,2.0408,2.0422,2.0544,2.0548,2.0553,2.064,2.0613,2.0717,2.0672,2.0627,2.0669,2.0668,2.0741,2.0751,2.0776,2.0867,2.0872,2.0818,2.0822,2.0824,2.0826,0,0,0,0,0,0,0,2.0401,2.0417,2.0567,2.0546,2.0552,2.0559,2.0572,2.0633,2.0689,2.0631,2.0633,2.0647,2.0743,2.077,2.0779,2.0874,2.0818,2.0823,2.0827,2.0829,2.1025,2.1026,0,0,0,0,0,0,2.0389,2.0411,2.0563,2.0571,2.0476,2.0563,2.0578,2.0613,2.0689,2.0699,2.0648,2.0648,2.0761,2.0772,2.0784,2.0863,2.0824,2.083,2.0833,2.1023,2.1025,2.1027,0,0,0,0,0,0,2.0384,2.0402,2.0558,2.0492,2.0512,2.0568,2.0607,2.0616,2.0643,2.0702,2.0712,2.0666,2.076,2.0775,2.0843,2.0868,2.0833,2.0838,2.1021,2.1024,2.1026,2.1022,0,0,0,0,0,0,2.0378,2.04,2.0424,2.0492,2.0515,2.0615,2.0609,2.0619,2.0654,2.0655,2.0721,2.0731,2.076,2.0834,2.0849,2.0876,2.0843,2.1019,2.1022,2.1025,2.102,2.1024,2.1027,0,0,0,0,0,2.0371,2.0417,2.0425,2.0444,2.0546,2.0617,2.063,2.0664,2.0656,2.0681,2.0719,2.0729,2.0863,2.084,2.0857,2.0886,2.1018,2.1022,2.1025,2.1018,2.1023,2.1027,0,0,0,0,0,0,2.0349,2.0426,2.0436,2.0506,2.0555,2.0621,2.0653,2.0667,2.0719,2.0717,2.0756,2.0771,2.0837,2.0868,2.0842,2.0952,2.094,2.0947,2.0929,2.0934,2.0937,2.0929,2.0848,0,0,0,0,0,2.0353,2.0404,2.0468,2.0523,2.0547,2.0596,2.0628,2.065,2.0702,2.0722,2.0765,2.0815,2.0869,2.0903,2.0955,2.1025,2.1041,2.1053,2.1057,2.1059,2.1065,2.1107,2.1114,2.1039,2.1039,2.1038,0,0,2.036,2.0408,2.0438,2.052,2.0561,2.0613,2.0613,2.0668,2.0707,2.073,2.0798,2.0831,2.0889,2.0959,2.0991,2.0987,2.109,2.1064,2.1066,2.107,2.1112,2.1119,2.1125,2.1041,2.1041,2.104,0,0,2.04,2.0441,2.0493,2.0535,2.0597,2.063,2.0642,2.0708,2.0732,2.08,2.0819,2.0867,2.0957,2.0999,2.1032,2.1092,2.1104,2.1108,2.1126,2.1166,2.1173,2.1178,2.1201,2.1209,2.1113,2.1113,2.1113,0,2.0401,2.0481,2.0518,2.0573,2.0609,2.0635,2.0689,2.0726,2.0802,2.0827,2.0821,2.0938,2.0978,2.1059,2.1074,2.1099,2.1116,2.11,2.1169,2.1175,2.118,2.1203,2.1212,2.1113,2.1113,2.1113,2.1113,0,2.0481,2.0536,2.0571,2.0645,2.0686,2.0739,2.0785,2.0821,2.084,2.0874,2.0945,2.0995,2.1059,2.108,2.1098,2.1164,2.116,2.1161,2.115,2.1187,2.121,2.1218,2.1114,2.1114,2.1114,2.1113,0,0,2.0509,2.0606,2.0618,2.0654,2.0726,2.0769,2.0825,2.0889,2.0921,2.0973,2.1021,2.1099,2.1102,2.1139,2.1163,2.1198,2.1245,2.1195,2.1197,2.1204,2.1324,2.1324,2.1333,2.1254,2.1255,2.1257,2.132,0,2.056,2.0661,2.0697,2.0781,2.0834,2.086,2.0909,2.0959,2.0993,2.1042,2.1079,2.1135,2.1132,2.1156,2.1192,2.1232,2.127,2.1228,2.13,2.1302,2.1286,2.1345,2.1344,2.1401,2.1329,2.133,2.1331,0,2.0632,2.0687,2.0777,2.0845,2.0869,2.0912,2.0976,2.1023,2.1081,2.1103,2.1146,2.1168,2.1229,2.1214,2.1298,2.1269,2.1301,2.1325,2.1328,2.1337,2.1319,2.1356,2.142,2.1429,2.1345,2.1344,2.1343,0,2.0646,2.0743,2.081,2.0839,2.092,2.0951,2.0985,2.1042,2.108,2.1135,2.116,2.1221,2.1255,2.1302,2.134,2.1326,2.1422,2.141,2.1443,2.1443,2.1463,2.1461,2.1534,2.1481,2.1481,2.1481,2.1481,0,2.07,2.0754,2.0818,2.0859,2.0922,2.0963,2.1023,2.106,2.1111,2.116,2.1186,2.1231,2.1279,2.1331,2.1361,2.1428,2.1442,2.1463,2.147,2.1461,2.1459,2.1483,2.1481,2.1483,2.1483,2.1482,2.1482,0,2.0726,2.0771,2.0846,2.0918,2.0937,2.098,2.1042,2.1083,2.1119,2.1181,2.1198,2.1254,2.1317,2.136,2.144,2.146,2.1533,2.1539,2.1514,2.1518,2.155,2.1547,2.1641,2.1657,2.1592,2.1593,2.1593,0,2.0758,2.0801,2.0878,2.0914,2.0949,2.1006,2.1045,2.1088,2.1128,2.1199,2.1232,2.1297,2.1352,2.1451,2.1499,2.1561,2.157,2.1599,2.1579,2.157,2.1573,2.157,2.1576,2.1602,2.1602,2.1603,2.1603,0,2.081,2.0831,2.0887,2.0952,2.0999,2.1052,2.1104,2.1132,2.1184,2.1228,2.1294,2.1336,2.142,2.1485,2.1552,2.1589,2.1605,2.1609,2.1621,2.1612,2.1597,2.1608,2.1524,2.1607,2.1606,2.1606,2.1606,2.1606,2.0842,2.0882,2.0944,2.1006,2.1051,2.1101,2.1144,2.1187,2.1243,2.1315,2.1337,2.1406,2.1465,2.1557,2.1595,2.165,2.1647,2.1663,2.1667,2.1671,2.1672,2.1587,2.1662,2.1662,2.1662,2.1662,2.1662,0,2.0897,2.0939,2.0996,2.107,2.112,2.1133,2.1193,2.1234,2.1294,2.1349,2.1403,2.148,2.1544,2.1597,2.1664,2.1698,2.1707,2.1714,2.1712,2.1721,2.1669,2.1654,2.1705,2.1705,2.1705,2.1705,2.1705,2.1705,2.0931,2.1002,2.103,2.1124,2.1165,2.1234,2.1268,2.1314,2.1358,2.1444,2.1498,2.1533,2.1587,2.1659,2.1718,2.1733,2.1756,2.1762,2.1778,2.1729,2.1724,2.1719,2.1705,2.1766,2.1766,2.1825,2.1825,2.1826]}]]